Wind_Speed
9 10 12 11 10 11 12 12 14 15 16 18 19 21 23 24 23 22 21 21 21 21 21 20 20 21 21 21 20 19 18 18 19 20 20 21 22 23 25 24 23 23 25
10 10 11 11 11 14 15 16 17 19 19 19 21 24 27 29 28 26 24 23 23 24 25 25 25 25 24 23 23 22 20 18 19 20 21 21 22 23 24 25 25 25 26
12 11 10 11 13 16 18 18 19 21 22 25 27 29 31 32 30 28 28 28 28 28 29 30 30 30 29 29 26 24 24 22 20 20 21 22 22 22 23 24 26 28 27
13 14 14 16 18 18 19 21 23 24 26 28 30 32 32 31 29 27 27 27 26 25 23 24 27 28 29 29 30 29 26 24 26 23 20 22 23 23 23 24 25 26 27
17 17 18 17 16 18 22 23 25 27 29 31 32 33 32 30 30 29 27 26 24 21 22 23 22 23 25 27 31 30 32 30 27 28 27 22 22 24 24 24 25 27 27
13 14 15 17 19 22 24 26 27 27 30 32 33 32 30 28 26 22 19 19 21 23 23 23 25 24 24 25 25 29 32 36 34 30 27 29 24 22 23 25 26 26 28
17 19 21 23 24 26 26 28 30 31 31 31 33 34 32 13 5 14 23 24 21 23 27 29 29 30 29 28 25 25 26 30 36 39 32 29 30 27 23 23 25 26 27
19 21 22 23 24 26 29 30 30 31 30 30 30 31 14 24 11 6 14 25 25 22 25 27 27 28 29 32 34 32 31 29 29 35 38 37 32 30 30 25 25 26 27
18 19 21 23 26 27 27 29 28 28 30 27 24 18 10 7 26 19 21 19 21 26 20 20 20 19 21 22 25 28 32 34 35 32 33 36 37 34 33 30 27 26 27
19 22 24 25 26 26 26 28 29 28 25 21 19 17 16 20 18 15 13 25 22 18 16 13 13 12 12 14 15 18 23 26 32 36 34 31 34 37 33 32 31 29 28
20 22 23 23 24 25 27 27 24 21 18 17 16 17 17 17 17 14 23 15 23 22 17 15 14 13 12 12 14 15 18 20 23 27 35 36 29 31 35 32 32 32 31
20 20 20 22 24 25 26 25 23 20 16 14 14 13 14 13 15 14 20 23 24 27 26 22 12 13 14 13 14 15 16 18 20 22 24 31 27 28 32 39 32 41 38
18 19 22 23 24 25 24 22 20 18 19 17 16 15 16 17 17 18 19 23 22 23 26 22 20 11 11 14 14 16 17 19 20 22 23 23 28 24 31 31 37 37 25
23 24 24 25 25 25 22 18 18 17 16 16 18 18 20 20 20 23 24 20 23 27 25 24 22 22 19 21 23 25 23 20 21 20 20 20 21 23 23 24 31 38 25
26 25 25 24 21 20 18 17 15 15 15 17 17 19 21 22 24 24 21 20 17 20 32 33 33 31 32 29 27 25 26 24 20 21 21 20 19 21 25 18 22 33 24
25 25 22 20 22 20 17 15 16 16 18 18 20 21 22 22 21 19 21 24 25 29 36 37 41 39 34 29 25 22 23 24 22 22 23 22 19 17 20 20 25 25 24
24 25 22 24 26 24 17 17 19 16 18 19 18 19 18 20 24 28 30 31 33 31 36 45 41 38 35 29 20 22 24 24 23 22 23 23 21 19 18 23 16 30 39
22 24 23 27 25 22 19 19 16 18 17 17 19 21 25 28 31 29 28 28 28 27 29 36 37 34 30 24 20 25 26 24 23 20 21 23 20 20 19 19 21 16 19
22 23 24 30 29 19 16 17 15 17 18 19 23 28 31 29 29 28 27 27 26 24 23 26 31 31 29 23 21 23 25 25 22 21 20 21 19 18 16 21 12 14 15
26 26 29 31 29 16 15 12 16 17 20 24 29 30 28 27 28 28 27 28 26 25 26 27 29 31 29 26 22 23 24 23 24 22 20 20 23 19 15 15 21 13 13
25 27 29 29 25 11 11 15 15 20 25 29 29 27 27 28 27 26 26 26 28 30 28 27 30 28 27 27 24 22 23 22 25 25 25 21 21 26 22 17 17 17 20
21 20 16 15 9 12 12 12 18 26 29 29 29 29 29 30 29 26 27 29 28 26 25 26 27 28 29 28 25 21 22 23 26 22 17 14 14 19 27 24 19 16 17
13 15 11 10 11 11 11 16 24 27 26 27 28 29 30 28 26 25 23 20 20 21 22 24 26 24 25 22 22 23 23 23 24 20 19 22 18 18 18 24 26 26 24
14 13 11 12 11 12 17 22 24 23 24 25 26 26 26 24 21 19 18 21 22 20 20 20 23 26 25 25 25 23 22 23 23 23 18 24 19 16 13 18 22 25 29
15 12 13 10 12 15 21 21 22 22 23 25 24 23 21 20 17 17 20 22 25 23 18 19 20 21 21 21 22 24 24 24 24 21 17 20 20 17 17 13 14 18 23
16 13 10 10 14 19 19 19 19 22 25 26 25 22 19 18 16 19 22 22 21 21 22 21 20 17 17 18 19 21 23 27 23 19 18 17 15 12 3 7 9 6 9
Wind_Direction
328 334 328 307 300 302 299 297 296 297 302 306 311 314 314 312 308 302 295 289 287 285 282 278 280 284 290 296 305 307 301 296 290 280 274 268 265 262 253 250 246 243 242
310 312 309 297 291 296 292 292 293 292 295 300 306 309 311 312 306 300 295 287 282 280 280 278 276 274 271 275 284 292 300 298 296 290 280 273 266 260 256 253 249 247 243
274 281 283 277 284 284 280 283 291 292 293 299 305 308 312 312 306 301 298 294 287 280 277 276 278 276 272 268 265 271 282 288 294 294 286 278 272 266 257 253 253 251 248
275 282 279 280 279 280 284 292 296 295 299 305 308 310 310 309 305 301 298 296 293 289 285 279 275 275 270 266 264 261 266 278 285 287 293 283 275 269 262 256 251 248 249
280 282 283 282 298 293 296 302 305 307 306 304 305 306 304 303 300 297 293 289 287 287 285 281 276 272 271 268 261 260 258 260 265 279 281 285 282 273 268 262 254 250 247
295 296 302 305 306 309 307 305 306 306 309 310 307 306 306 304 299 292 282 277 282 287 288 286 282 278 274 271 267 262 259 259 256 260 271 276 276 277 271 266 263 257 250
310 304 303 306 309 309 311 313 313 314 313 315 318 315 322 324 268 282 277 283 288 294 293 291 286 281 278 274 273 268 265 262 254 252 251 261 268 271 270 269 265 263 258
326 317 312 313 314 314 313 315 318 320 321 321 320 320 320 305 301 243 284 292 296 301 304 298 294 292 288 279 275 272 266 265 266 259 254 252 252 259 262 263 266 264 263
320 313 312 311 310 311 314 317 318 319 320 319 317 318 319 297 306 308 297 303 300 312 312 305 302 300 295 292 286 279 273 267 264 266 262 254 250 252 256 259 262 265 261
316 314 313 314 315 319 321 322 321 320 315 308 303 298 293 292 303 304 293 294 296 305 315 315 317 309 301 299 296 292 287 281 269 264 266 265 256 247 252 255 257 258 259
313 312 316 320 324 326 326 326 328 328 319 309 303 300 295 291 291 297 306 308 306 308 313 306 310 309 319 312 312 306 298 295 288 273 262 264 267 257 244 248 251 251 251
319 323 326 325 327 329 330 327 326 328 325 320 317 315 312 307 306 298 295 298 304 312 311 310 302 301 303 304 316 317 311 307 304 298 282 261 266 264 250 243 244 250 244
341 338 333 332 328 324 324 320 318 323 320 308 304 301 302 300 299 296 291 297 304 306 309 310 313 309 300 310 315 317 316 314 311 305 308 293 266 265 257 245 240 249 219
334 332 332 331 326 319 314 309 305 303 304 306 305 301 301 300 297 295 289 295 296 296 291 295 300 302 306 303 305 305 305 308 308 308 310 311 291 277 256 250 249 239 227
328 326 323 315 311 307 302 299 300 308 302 309 308 305 299 297 292 293 285 285 291 302 294 300 303 304 307 303 300 296 296 294 293 301 300 305 308 275 252 242 219 221 202
324 315 303 306 317 307 293 292 301 305 305 305 302 299 299 298 296 288 283 289 294 293 291 293 297 299 299 292 289 282 283 289 289 283 290 295 304 295 260 243 236 206 181
315 305 301 311 311 302 293 300 301 298 302 306 304 300 297 299 296 293 290 287 284 283 283 287 289 292 292 292 279 272 278 284 284 280 280 284 288 298 288 241 227 221 222
314 303 296 304 306 292 289 296 294 306 313 309 303 302 305 303 298 297 296 294 292 288 283 285 287 290 291 290 269 269 281 284 283 282 276 278 282 279 285 283 239 230 217
318 307 288 297 301 273 289 283 306 310 311 307 307 309 307 305 304 303 302 300 299 295 289 286 287 288 288 287 276 269 277 281 280 282 277 264 267 276 266 279 251 227 234
310 300 292 298 296 282 290 291 302 297 304 308 308 307 306 306 304 304 304 302 299 296 294 291 284 283 287 286 281 277 274 276 278 277 277 274 253 245 250 256 274 256 262
310 305 303 306 281 259 261 300 283 301 306 309 309 307 306 303 300 297 294 295 293 296 295 289 285 291 293 292 284 281 277 279 277 281 285 278 258 242 239 236 230 236 234
306 307 313 328 303 295 301 284 300 308 311 313 311 311 308 305 304 300 295 292 291 292 291 287 285 285 289 290 288 281 278 280 280 282 282 270 261 242 236 236 231 226 220
310 315 320 325 309 301 295 304 308 310 313 313 315 314 311 309 307 306 306 307 304 297 289 288 285 283 285 284 285 283 276 272 271 276 275 274 262 255 249 244 241 238 235
318 319 308 310 303 299 305 308 312 315 316 319 322 320 317 318 324 321 327 320 317 311 308 299 288 285 282 281 277 276 276 274 268 266 270 278 281 275 250 244 242 242 241
305 307 307 295 297 306 309 315 316 318 324 329 329 331 328 321 327 333 318 311 310 314 315 306 301 290 282 279 275 269 263 278 259 265 269 277 276 282 285 258 242 242 244
292 288 290 295 303 307 315 318 320 327 330 331 337 335 328 321 326 318 318 317 319 317 314 316 320 306 290 280 271 263 257 250 257 273 281 267 275 276 267 259 228 239 261
Height
1569 1568 1568 1568 1567 1568 1567 1566 1565 1564 1564 1563 1561 1560 1559 1558 1556 1555 1553 1551 1550 1548 1547 1545 1544 1543 1542 1541 1541 1539 1537 1536 1535 1534 1535 1535 1535 1536 1538 1540 1543 1545 1547
1567 1568 1567 1566 1566 1566 1565 1564 1563 1562 1560 1559 1558 1557 1555 1553 1551 1549 1547 1545 1543 1542 1542 1540 1539 1538 1537 1536 1535 1535 1534 1533 1531 1530 1529 1529 1530 1531 1533 1535 1537 1539 1542
1565 1565 1565 1564 1563 1562 1561 1560 1559 1558 1556 1555 1554 1552 1550 1549 1547 1543 1540 1538 1537 1536 1535 1534 1533 1533 1532 1531 1530 1529 1528 1528 1528 1527 1526 1525 1525 1526 1527 1528 1531 1534 1536
1563 1562 1562 1561 1560 1559 1559 1557 1556 1554 1551 1549 1547 1546 1544 1543 1541 1539 1535 1532 1530 1528 1528 1527 1526 1525 1524 1524 1524 1523 1523 1522 1521 1522 1522 1521 1521 1522 1523 1524 1526 1528 1531
1561 1561 1559 1557 1558 1554 1556 1552 1550 1548 1545 1543 1541 1539 1538 1537 1535 1533 1531 1527 1524 1523 1521 1520 1519 1518 1517 1517 1517 1517 1517 1517 1516 1515 1516 1516 1516 1517 1518 1519 1519 1521 1524
1561 1559 1558 1556 1554 1551 1550 1547 1545 1543 1539 1535 1534 1531 1531 1530 1528 1525 1524 1522 1520 1518 1516 1514 1513 1511 1511 1510 1509 1509 1509 1509 1509 1510 1510 1510 1511 1511 1511 1513 1513 1515 1516
1559 1557 1554 1552 1549 1547 1544 1542 1539 1536 1534 1530 1525 1522 1520 1520 1521 1521 1519 1516 1515 1513 1511 1508 1506 1505 1504 1503 1503 1502 1501 1500 1500 1501 1502 1503 1503 1504 1505 1506 1506 1507 1509
1556 1553 1550 1547 1545 1542 1540 1537 1534 1531 1528 1525 1522 1518 1516 1516 1514 1515 1514 1511 1509 1508 1506 1502 1499 1498 1496 1495 1494 1494 1493 1493 1493 1493 1493 1494 1495 1496 1497 1499 1500 1500 1502
1550 1548 1545 1543 1541 1538 1535 1533 1530 1527 1523 1521 1519 1519 1515 1511 1509 1510 1509 1506 1505 1503 1500 1496 1494 1492 1490 1488 1486 1485 1485 1486 1486 1486 1484 1485 1487 1488 1489 1492 1493 1494 1495
1546 1543 1541 1539 1536 1534 1531 1529 1526 1523 1520 1518 1516 1515 1514 1511 1508 1503 1504 1503 1501 1498 1495 1493 1490 1487 1486 1484 1482 1481 1479 1477 1478 1479 1477 1476 1477 1480 1482 1484 1486 1488 1489
1543 1540 1538 1535 1533 1530 1527 1523 1521 1518 1515 1513 1511 1510 1508 1507 1505 1503 1497 1498 1496 1494 1493 1490 1487 1485 1483 1481 1479 1477 1475 1472 1470 1470 1471 1469 1469 1470 1473 1476 1478 1480 1482
1539 1536 1534 1531 1528 1525 1521 1518 1516 1514 1512 1511 1509 1507 1505 1503 1501 1500 1497 1494 1491 1488 1487 1486 1484 1483 1480 1478 1476 1474 1472 1469 1467 1464 1463 1462 1462 1463 1464 1467 1469 1470 1471
1535 1532 1530 1527 1524 1521 1518 1514 1512 1510 1509 1508 1506 1505 1503 1500 1498 1495 1492 1490 1488 1484 1481 1480 1480 1480 1478 1476 1474 1471 1469 1467 1464 1461 1458 1456 1455 1456 1458 1459 1462 1465 1461
1531 1528 1526 1523 1521 1518 1515 1512 1509 1507 1506 1505 1503 1501 1499 1497 1495 1492 1489 1486 1482 1480 1478 1475 1475 1474 1473 1472 1470 1467 1465 1463 1460 1457 1455 1451 1449 1449 1451 1451 1453 1459 1464
1528 1525 1522 1519 1516 1513 1511 1509 1506 1504 1504 1501 1499 1498 1495 1493 1490 1487 1485 1482 1480 1475 1469 1467 1467 1467 1466 1465 1464 1462 1459 1458 1456 1453 1451 1448 1445 1445 1445 1446 1447 1448 1456
1522 1519 1516 1514 1511 1508 1506 1504 1502 1500 1499 1497 1494 1493 1490 1487 1485 1484 1481 1479 1476 1474 1464 1462 1459 1458 1458 1457 1456 1455 1453 1452 1450 1449 1446 1444 1443 1441 1441 1441 1443 1445 1447
1516 1514 1511 1508 1505 1503 1501 1501 1499 1497 1495 1493 1490 1487 1486 1483 1481 1479 1476 1473 1469 1467 1460 1452 1452 1451 1449 1448 1448 1448 1447 1445 1444 1443 1441 1440 1439 1438 1437 1437 1438 1440 1443
1512 1509 1506 1503 1500 1498 1497 1496 1495 1493 1490 1487 1485 1483 1480 1477 1474 1470 1467 1463 1460 1458 1454 1446 1444 1443 1441 1441 1441 1440 1440 1439 1437 1437 1436 1434 1434 1433 1433 1433 1433 1435 1436
1507 1504 1500 1497 1494 1492 1491 1491 1490 1488 1485 1483 1480 1477 1473 1470 1466 1462 1459 1455 1452 1450 1447 1443 1438 1436 1435 1435 1434 1433 1433 1432 1431 1430 1430 1429 1429 1428 1428 1429 1430 1431 1433
1501 1498 1495 1491 1488 1486 1486 1487 1486 1483 1481 1478 1475 1471 1467 1463 1459 1455 1451 1448 1445 1442 1440 1437 1433 1430 1429 1428 1428 1427 1426 1426 1424 1424 1423 1423 1423 1424 1424 1424 1426 1428 1430
1495 1492 1489 1486 1482 1480 1482 1483 1481 1479 1476 1473 1469 1465 1461 1457 1453 1450 1446 1442 1438 1435 1433 1430 1427 1425 1423 1422 1422 1421 1419 1419 1417 1416 1415 1415 1415 1417 1419 1420 1422 1424 1427
1489 1486 1483 1481 1480 1480 1479 1479 1477 1474 1471 1466 1462 1458 1454 1449 1445 1441 1438 1435 1432 1428 1426 1423 1421 1419 1417 1416 1415 1414 1414 1412 1410 1411 1409 1409 1409 1409 1411 1414 1417 1419 1421
1484 1482 1480 1479 1478 1477 1477 1475 1473 1469 1465 1461 1456 1451 1446 1442 1438 1433 1430 1427 1425 1423 1420 1418 1414 1413 1411 1410 1408 1407 1407 1406 1405 1406 1405 1402 1404 1404 1406 1407 1410 1412 1416
1480 1479 1478 1477 1475 1475 1474 1471 1468 1464 1461 1456 1451 1446 1440 1435 1432 1428 1426 1423 1420 1417 1414 1411 1408 1406 1404 1403 1402 1401 1400 1399 1399 1399 1400 1397 1399 1399 1401 1401 1402 1405 1408
1478 1476 1475 1474 1473 1472 1470 1467 1463 1460 1456 1451 1446 1441 1436 1432 1429 1427 1423 1418 1415 1411 1408 1405 1402 1399 1397 1396 1395 1395 1393 1393 1392 1393 1395 1393 1393 1394 1394 1394 1396 1398 1400
1474 1473 1472 1472 1470 1469 1466 1463 1459 1455 1451 1446 1442 1438 1434 1430 1427 1424 1419 1414 1410 1407 1403 1399 1396 1393 1391 1389 1388 1387 1387 1388 1388 1388 1389 1389 1389 1390 1389 1390 1392 1393 1393